Location: Rounton
(54.4000°N, 1.3500°W)
Time: 19:44:22
(UTC+00:00)

A-11 Canister half - Pass Details

Date: 09 December 2021
Orbit: 1516 x 1684 km, 47.2° (Epoch: 19 January)

Event Time Altitude Azimuth Distance (km) Brightness Sun altitude
Rises 03:20:31 0° 166° (SSE) 4,714 11.5 -40.9°
Reaches altitude 10° 03:28:21 10° 125° (SE) 3,792 11.4 -39.9°
Maximum altitude 03:28:55 10° 122° (ESE) 3,791 11.4 -39.8°
Drops below altitude 10° 03:29:30 10° 118° (ESE) 3,801 11.5 -39.7°
Sets 03:37:29 0° 78° (ENE) 4,852 12.5 -38.6°
